Location: Unspecified
(50.7693°N, 0.0000°E)
Time: 06:30:06
(UTC+00:00)

Transit 4A - Pass Details

Date: 26 June 2019
Orbit: 862 x 982 km, 66.8° (Epoch: 18 July)

Event Time Altitude Azimuth Distance (km) Brightness Sun altitude
Rises 07:51:15 0° 217° (SW) 3,626 10.7 34.9°
Reaches altitude 10° 07:53:46 10° 218° (SW) 2,697 10.1 35.3°
Maximum altitude 08:00:07 84° 307° (NW) 989 8.6 36.3°
Drops below altitude 10° 08:06:36 10° 37° (NE) 2,747 10.8 37.3°
Sets 08:09:11 0° 38° (NE) 3,697 11.4 37.7°
